• Em Portugal
  • Lista de países
  • Para 7 dias
  • Temperatura da água
  • Mapas de satélite
  • Mapa do tempo
  • Widgets de tempo
  • user-avatar
    Iniciar Sessão

    Previsão horária em Abovyan

    Hoje, 24 Janeiro, Quarta-feira

    Tempo Temperatura Precipitação Vento Pressão Humidade
    00:00 +2°C° 0,1 mm 1 m/s 667 mmHg 62%
    01:00 +2°C° 0,1 mm 1 m/s 667 mmHg 64%
    02:00 +2°C° 0,1 mm 1 m/s 667 mmHg 65%
    03:00 +1°C° 0,1 mm 1 m/s 667 mmHg 66%
    04:00 +1°C° 0,1 mm 1 m/s 667 mmHg 67%
    05:00 +1°C° 0,1 mm 1 m/s 668 mmHg 68%
    06:00 +1°C° 0,1 mm 1 m/s 668 mmHg 69%
    07:00 +1°C° 0,1 mm 1 m/s 668 mmHg 69%
    08:00 +2°C° 0,1 mm 1 m/s 669 mmHg 69%
    09:00 +3°C° 0,1 mm 1 m/s 669 mmHg 70%
    10:00 +3°C° 0,1 mm 1 m/s 669 mmHg 69%
    11:00 +4°C° 0,1 mm 1 m/s 669 mmHg 68%
    12:00 +5°C° 0,1 mm 1 m/s 669 mmHg 67%
    13:00 +5°C° 0,1 mm 1 m/s 669 mmHg 67%
    14:00 +5°C° 0,1 mm 1 m/s 669 mmHg 67%
    15:00 +6°C° 0,1 mm 1 m/s 669 mmHg 67%
    16:00 +5°C° 0,2 mm 1 m/s 669 mmHg 68%
    17:00 +4°C° 0,2 mm 1 m/s 669 mmHg 70%
    18:00 +3°C° 0,2 mm 1 m/s 669 mmHg 72%
    19:00 +3°C° 0,2 mm 1 m/s 670 mmHg 72%
    20:00 +3°C° 0,2 mm 1 m/s 670 mmHg 73%
    21:00 +3°C° 0,2 mm 1 m/s 670 mmHg 74%
    22:00 +3°C° 0,2 mm 1 m/s 670 mmHg 74%
    23:00 +3°C° 0,2 mm 1 m/s 670 mmHg 75%

    Amanhã, 25 Janeiro, Quinta-feira

    Tempo Temperatura Precipitação Vento Pressão Humidade
    00:00 +2°C° 0,2 mm 1 m/s 670 mmHg 75%
    01:00 +2°C° 0,2 mm 1 m/s 670 mmHg 76%
    02:00 +2°C° 0,2 mm 1 m/s 670 mmHg 77%
    03:00 +2°C° 0,2 mm 1 m/s 670 mmHg 78%
    04:00 +2°C° 0,2 mm 1 m/s 670 mmHg 78%
    05:00 +2°C° 0,2 mm 1 m/s 670 mmHg 79%
    06:00 +2°C° 0,2 mm 1 m/s 670 mmHg 80%
    07:00 +2°C° 0,2 mm 1 m/s 670 mmHg 79%
    08:00 +3°C° 0,2 mm 1 m/s 671 mmHg 78%
    09:00 +3°C° 0,2 mm 1 m/s 671 mmHg 77%
    10:00 +4°C° 0,2 mm 1 m/s 671 mmHg 75%
    11:00 +4°C° 0,2 mm 1 m/s 671 mmHg 74%
    12:00 +4°C° 0,2 mm 2 m/s 671 mmHg 73%
    13:00 +4°C° 0,2 mm 2 m/s 671 mmHg 73%
    14:00 +4°C° 0,2 mm 2 m/s 670 mmHg 73%
    15:00 +5°C° 0,2 mm 2 m/s 670 mmHg 73%
    16:00 +5°C° 0,1 mm 1 m/s 670 mmHg 75%
    17:00 +4°C° 0,1 mm 1 m/s 670 mmHg 76%
    18:00 +3°C° 0,1 mm 1 m/s 670 mmHg 78%
    19:00 +3°C° 0,1 mm 1 m/s 670 mmHg 78%
    20:00 +3°C° 0,1 mm 1 m/s 671 mmHg 78%
    21:00 +2°C° 0,1 mm 2 m/s 671 mmHg 78%
    22:00 +2°C° 0,2 mm 2 m/s 671 mmHg 78%
    23:00 +1°C° 0,2 mm 2 m/s 671 mmHg 78%

    Depois de amanhã, 26 Janeiro, Sexta-feira

    Tempo Temperatura Precipitação Vento Pressão Humidade
    00:00 +1°C° 0,2 mm 2 m/s 671 mmHg 78%
    01:00 +1°C° 0,1 mm 2 m/s 671 mmHg 78%
    02:00 +1°C° 0,1 mm 2 m/s 670 mmHg 78%
    03:00 +1°C° 0,1 mm 2 m/s 670 mmHg 78%
    04:00 +1°C° 0,1 mm 2 m/s 670 mmHg 78%
    05:00 -1°C° 0,1 mm 2 m/s 670 mmHg 78%
    06:00 -1°C° 0,1 mm 2 m/s 670 mmHg 79%
    07:00 +1°C° 0 mm 2 m/s 670 mmHg 77%
    08:00 +1°C° 0 mm 2 m/s 670 mmHg 76%
    09:00 +2°C° 0 mm 2 m/s 670 mmHg 75%
    10:00 +2°C° 0 mm 2 m/s 670 mmHg 73%
    11:00 +3°C° 0 mm 2 m/s 669 mmHg 71%
    12:00 +4°C° 0 mm 2 m/s 669 mmHg 69%
    13:00 +4°C° 0,1 mm 2 m/s 669 mmHg 69%
    14:00 +4°C° 0,1 mm 2 m/s 669 mmHg 69%
    15:00 +4°C° 0,1 mm 2 m/s 669 mmHg 69%
    16:00 +5°C° 0,2 mm 1 m/s 669 mmHg 72%
    17:00 +4°C° 0,2 mm 1 m/s 669 mmHg 74%
    18:00 +3°C° 0,2 mm 1 m/s 669 mmHg 76%
    19:00 +3°C° 0,2 mm 1 m/s 670 mmHg 77%
    20:00 +1°C° 0,2 mm 2 m/s 670 mmHg 78%
    21:00 +1°C° 0,2 mm 2 m/s 670 mmHg 78%
    22:00 +1°C° 0,3 mm 2 m/s 670 mmHg 79%
    23:00 +1°C° 0,3 mm 2 m/s 670 mmHg 80%

    27 Janeiro, Sábado

    Tempo Temperatura Precipitação Vento Pressão Humidade
    00:00 +1°C° 0,3 mm 2 m/s 670 mmHg 80%
    01:00 +1°C° 0,3 mm 2 m/s 670 mmHg 81%
    02:00 -1°C° 0,3 mm 2 m/s 670 mmHg 81%
    03:00 +1°C° 0,3 mm 1 m/s 670 mmHg 82%
    04:00 -1°C° 0,3 mm 2 m/s 670 mmHg 82%
    05:00 -1°C° 0,3 mm 2 m/s 670 mmHg 82%
    06:00 -1°C° 0,3 mm 2 m/s 670 mmHg 83%
    07:00 -1°C° 0,3 mm 2 m/s 671 mmHg 81%
    08:00 -1°C° 0,3 mm 2 m/s 671 mmHg 80%
    09:00 +1°C° 0,3 mm 2 m/s 671 mmHg 79%
    10:00 +1°C° 0,2 mm 2 m/s 671 mmHg 77%
    11:00 +2°C° 0,2 mm 2 m/s 671 mmHg 74%
    12:00 +3°C° 0,2 mm 2 m/s 671 mmHg 72%
    13:00 +3°C° 0,2 mm 2 m/s 671 mmHg 71%
    14:00 +3°C° 0,2 mm 2 m/s 671 mmHg 71%
    15:00 +3°C° 0,2 mm 2 m/s 671 mmHg 70%
    16:00 +2°C° 0,2 mm 2 m/s 672 mmHg 72%
    17:00 +2°C° 0,2 mm 2 m/s 672 mmHg 74%
    18:00 +1°C° 0,2 mm 2 m/s 673 mmHg 75%
    19:00 -1°C° 0,2 mm 2 m/s 673 mmHg 76%
    20:00 -1°C° 0,2 mm 2 m/s 674 mmHg 77%
    21:00 -2°C° 0,2 mm 2 m/s 674 mmHg 78%
    22:00 -2°C° 0,1 mm 2 m/s 674 mmHg 79%
    23:00 -2°C° 0,1 mm 2 m/s 675 mmHg 79%

    28 Janeiro, Domingo

    Tempo Temperatura Precipitação Vento Pressão Humidade
    00:00 -3°C° 0,1 mm 2 m/s 675 mmHg 79%
    01:00 -3°C° 0,1 mm 2 m/s 675 mmHg 79%
    02:00 -3°C° 0,1 mm 2 m/s 675 mmHg 79%
    03:00 -4°C° 0,1 mm 2 m/s 675 mmHg 79%
    04:00 -4°C° 0,1 mm 2 m/s 675 mmHg 79%
    05:00 -4°C° 0,1 mm 2 m/s 676 mmHg 79%
    06:00 -5°C° 0,1 mm 2 m/s 676 mmHg 79%
    07:00 -4°C° 0 mm 2 m/s 676 mmHg 77%
    08:00 -3°C° 0 mm 2 m/s 677 mmHg 75%
    09:00 -2°C° 0 mm 2 m/s 677 mmHg 73%
    10:00 -1°C° 0 mm 2 m/s 677 mmHg 70%
    11:00 +2°C° 0 mm 1 m/s 677 mmHg 68%
    12:00 +3°C° 0 mm 1 m/s 677 mmHg 66%
    13:00 +3°C° 0 mm 1 m/s 677 mmHg 65%
    14:00 +3°C° 0 mm 1 m/s 676 mmHg 65%
    15:00 +4°C° 0 mm 1 m/s 676 mmHg 65%
    16:00 +3°C° 0 mm 1 m/s 676 mmHg 67%
    17:00 +2°C° 0 mm 1 m/s 677 mmHg 69%
    18:00 -1°C° 0 mm 2 m/s 677 mmHg 71%
    19:00 -2°C° 0 mm 2 m/s 677 mmHg 72%
    20:00 -3°C° 0 mm 2 m/s 677 mmHg 73%
    21:00 -3°C° 0 mm 2 m/s 677 mmHg 74%
    22:00 -4°C° 0 mm 2 m/s 677 mmHg 74%
    23:00 -2°C° 0 mm 1 m/s 677 mmHg 74%

    29 Janeiro, Segunda-feira

    Tempo Temperatura Precipitação Vento Pressão Humidade
    00:00 -2°C° 0 mm 1 m/s 676 mmHg 75%
    01:00 -3°C° 0 mm 1 m/s 676 mmHg 74%
    02:00 -3°C° 0 mm 1 m/s 676 mmHg 74%
    03:00 -3°C° 0 mm 1 m/s 676 mmHg 74%
    04:00 -4°C° 0 mm 1 m/s 675 mmHg 74%
    05:00 -4°C° 0 mm 1 m/s 675 mmHg 73%
    06:00 -4°C° 0 mm 1 m/s 675 mmHg 73%
    07:00 -3°C° 0 mm 1 m/s 675 mmHg 71%
    08:00 -2°C° 0 mm 1 m/s 675 mmHg 70%
    09:00 -1°C° 0 mm 1 m/s 675 mmHg 68%
    10:00 0°C° 0 mm 1 m/s 675 mmHg 66%
    11:00 +1°C° 0 mm 1 m/s 675 mmHg 64%
    12:00 +2°C° 0 mm 1 m/s 674 mmHg 62%
    13:00 +2°C° 0 mm 1 m/s 674 mmHg 62%
    14:00 +3°C° 0 mm 1 m/s 673 mmHg 62%
    15:00 +3°C° 0 mm 1 m/s 672 mmHg 62%
    16:00 +1°C° 0 mm 1 m/s 672 mmHg 64%
    17:00 0°C° 0 mm 1 m/s 672 mmHg 65%
    18:00 -1°C° 0 mm 1 m/s 672 mmHg 66%
    19:00 -1°C° 0 mm 1 m/s 672 mmHg 66%
    20:00 -1°C° 0 mm 1 m/s 672 mmHg 67%
    21:00 -1°C° 0 mm 1 m/s 672 mmHg 67%
    22:00 -1°C° 0,1 mm 1 m/s 672 mmHg 68%
    23:00 -1°C° 0,1 mm 1 m/s 671 mmHg 69%
    Mostrar mais